[[{"header":{"parameterUnit":"m.s-1","parameterCategory":1,"la1":30.2991,"la2":30.254,"lo1":-89.0895,"lo2":-89.0444,"dy":0.0017,"dx":0.0017,"nx":28,"ny":28,"refTime":"2023-10-31T21:00:00:Z","depth":0,"parameterNumber":2,"parameterNumberName":"U-component_of_WINDS"},"data":[0,0,0,0,0,0,0,0,0,0,0,0,0,0,0,0,0,0,0,0,0,0,0,0,0,0,0,0,0,0,0,0,0,0,0,0,0,0,0,0,0,0,0,0,0,0,0,0,0,0,0,0,0,0,0,0,0,0,-2.8459,-2.846,0,-2.8516,-2.8517,-2.8518,-2.8476,-2.8474,-2.8473,-2.8471,-2.8529,-2.8532,-2.8535,0,0,0,0,0,0,0,0,0,0,0,0,0,-2.8313,-2.8316,-2.8459,-2.846,-2.8461,-2.8516,-2.8517,-2.8518,-2.8477,-2.8474,-2.8472,-2.847,-2.8527,-2.8531,-2.8535,0,0,0,0,0,0,0,0,0,0,0,0,0,-2.8374,-2.8317,-2.8459,-2.8447,-2.8446,-2.8516,-2.8517,-2.8518,-2.8477,-2.8474,-2.8472,-2.8469,-2.8526,-2.8531,-2.8536,-2.8621,0,0,-2.8551,-2.8553,0,0,0,0,0,0,0,0,-2.8371,-2.8379,-2.8448,-2.8448,-2.8447,-2.8486,-2.8487,-2.8552,-2.8478,-2.8465,-2.8471,-2.8468,-2.8517,-2.8522,-2.8539,-2.8623,-2.8626,-2.8551,-2.8554,-2.8556,-2.8557,0,0,0,0,0,0,0,-2.8366,-2.8377,-2.8482,-2.8449,-2.8449,-2.8438,-2.8444,-2.8499,-2.8506,-2.8466,-2.8463,-2.8471,-2.8516,-2.8534,-2.854,-2.8627,-2.8551,-2.8555,-2.8558,-2.856,-2.8783,-2.8786,0,0,0,0,0,0,-2.8364,-2.8373,-2.848,-2.8483,-2.8401,-2.8443,-2.8449,-2.8477,-2.8505,-2.8507,-2.8473,-2.8469,-2.8527,-2.8534,-2.8542,-2.8643,-2.8556,-2.8561,-2.8563,-2.878,-2.8784,-2.8787,0,0,0,0,0,0,-2.8361,-2.8373,-2.8478,-2.8428,-2.844,-2.8448,-2.8479,-2.8479,-2.8497,-2.851,-2.8511,-2.8491,-2.8525,-2.8535,-2.8601,-2.8645,-2.8563,-2.8567,-2.8777,-2.8781,-2.8785,-2.8847,0,0,0,0,0,0,-2.8357,-2.8373,-2.8405,-2.8429,-2.8443,-2.8537,-2.8482,-2.8482,-2.8506,-2.8501,-2.8527,-2.8529,-2.8524,-2.8594,-2.8606,-2.865,-2.8571,-2.8773,-2.8779,-2.8784,-2.8841,-2.8853,-2.8863,0,0,0,0,0,-2.8351,-2.842,-2.8407,-2.842,-2.8484,-2.854,-2.8548,-2.8541,-2.851,-2.8543,-2.855,-2.8528,-2.8638,-2.8601,-2.8614,-2.866,-2.877,-2.8777,-2.8784,-2.8836,-2.8851,-2.8863,0,0,0,0,0,0,-2.8402,-2.8423,-2.8409,-2.8487,-2.8512,-2.8532,-2.8574,-2.8557,-2.8591,-2.8585,-2.8575,-2.8581,-2.8651,-2.8662,-2.8621,-2.8744,-2.8699,-2.8709,-2.8734,-2.8748,-2.8759,-2.8756,-2.8575,0,0,0,0,0,-2.8422,-2.8465,-2.8481,-2.8549,-2.8562,-2.8566,-2.859,-2.8583,-2.8608,-2.8618,-2.8631,-2.8655,-2.8695,-2.8722,-2.876,-2.8842,-2.8847,-2.888,-2.8891,-2.89,-2.8909,-2.8953,-2.8968,-2.8809,-2.8809,-2.8809,0,0,-2.8464,-2.8481,-2.8509,-2.856,-2.8578,-2.8623,-2.8575,-2.8625,-2.8658,-2.8625,-2.8689,-2.8699,-2.8726,-2.8801,-2.8834,-2.8812,-2.8954,-2.8909,-2.8916,-2.892,-2.8962,-2.8977,-2.899,-2.8814,-2.8813,-2.8812,0,0,-2.8564,-2.8581,-2.864,-2.8659,-2.8687,-2.8689,-2.8703,-2.8726,-2.8732,-2.8795,-2.8772,-2.8811,-2.888,-2.89,-2.892,-2.9027,-2.9007,-2.9039,-2.9097,-2.9141,-2.9153,-2.9164,-2.9203,-2.9217,-2.9048,-2.9048,-2.9048,0,-2.8613,-2.8681,-2.8672,-2.8724,-2.8746,-2.8719,-2.8778,-2.8796,-2.8835,-2.8852,-2.8826,-2.8913,-2.8929,-2.9008,-2.9034,-2.905,-2.9066,-2.9037,-2.9152,-2.9163,-2.9174,-2.921,-2.9225,-2.9051,-2.9051,-2.9051,-2.905,0,-2.874,-2.8787,-2.883,-2.8869,-2.8897,-2.8952,-2.8951,-2.898,-2.897,-2.8974,-2.904,-2.9058,-2.9099,-2.9116,-2.9107,-2.9195,-2.918,-2.9154,-2.9108,-2.9193,-2.9227,-2.9241,-2.9057,-2.9056,-2.9054,-2.9053,0,0,-2.8875,-2.8907,-2.8924,-2.8941,-2.8969,-2.9005,-2.9059,-2.9099,-2.9124,-2.9151,-2.9196,-2.9255,-2.9231,-2.9253,-2.9245,-2.9283,-2.9367,-2.9252,-2.9252,-2.9274,-2.9465,-2.9486,-2.9502,-2.9354,-2.9356,-2.9359,-2.9463,0,-2.8977,-2.9071,-2.9064,-2.9153,-2.9196,-2.917,-2.9216,-2.9238,-2.9244,-2.9281,-2.9286,-2.9328,-2.9293,-2.9306,-2.9342,-2.935,-2.9406,-2.9342,-2.9396,-2.9398,-2.9391,-2.952,-2.9542,-2.964,-2.9476,-2.9479,-2.948,0,-2.911,-2.9142,-2.9235,-2.9257,-2.9275,-2.9317,-2.9353,-2.9389,-2.9413,-2.9414,-2.9439,-2.9425,-2.9478,-2.943,-2.9504,-2.946,-2.9482,-2.9488,-2.9492,-2.9498,-2.9445,-2.9531,-2.9671,-2.9687,-2.9501,-2.95,-2.9498,0,-2.92,-2.9267,-2.9331,-2.9346,-2.9373,-2.9403,-2.9416,-2.9438,-2.9462,-2.9493,-2.9509,-2.9546,-2.9566,-2.9595,-2.9591,-2.9557,-2.9666,-2.9618,-2.9669,-2.9669,-2.9694,-2.9693,-2.9841,-2.9706,-2.9706,-2.9705,-2.9705,0,-2.9316,-2.9374,-2.9372,-2.9412,-2.9476,-2.9467,-2.953,-2.9539,-2.9559,-2.9599,-2.9578,-2.9616,-2.9608,-2.9646,-2.9643,-2.9705,-2.9714,-2.9716,-2.9715,-2.9719,-2.9719,-2.9734,-2.9728,-2.9709,-2.9708,-2.9708,-2.9707,0,-2.9429,-2.9429,-2.9498,-2.9518,-2.9524,-2.957,-2.9587,-2.9624,-2.9627,-2.9679,-2.969,-2.9695,-2.9739,-2.9737,-2.9786,-2.9784,-2.986,-2.985,-2.9853,-2.9851,-2.9902,-2.9898,-3.0066,-3.0088,-2.9938,-2.9939,-2.994,0,-2.9504,-2.9548,-2.9572,-2.9598,-2.9613,-2.9654,-2.9679,-2.9672,-2.9698,-2.9729,-2.9763,-2.9804,-2.9838,-2.9908,-2.9916,-2.9954,-2.9945,-3.0002,-2.9951,-2.9953,-2.9947,-2.9945,-2.995,-3.0012,-3.0014,-3.0015,-3.0016,0,-2.9637,-2.9635,-2.9672,-2.9709,-2.9739,-2.9768,-2.9794,-2.9816,-2.9811,-2.9842,-2.9887,-2.9913,-2.9963,-3.0005,-3.0041,-3.0053,-3.0034,-3.0032,-3.0046,-3.0051,-3.0051,-3.0053,-2.9881,-3.0029,-3.0027,-3.0027,-3.0026,-3.0025,-2.9733,-2.9771,-2.9795,-2.9836,-2.9855,-2.988,-2.9916,-2.9924,-2.9961,-3.0002,-2.9994,-3.0045,-3.0067,-3.0113,-3.0129,-3.0167,-3.0147,-3.0167,-3.0172,-3.0178,-3.0184,-3.0044,-3.0173,-3.0173,-3.0173,-3.0173,-3.0172,0,-2.9866,-2.9879,-2.9918,-2.9956,-2.9988,-2.9967,-2.9995,-3.0024,-3.0069,-3.0091,-3.0124,-3.0175,-3.0215,-3.0226,-3.0264,-3.0293,-3.0285,-3.0303,-3.0302,-3.0305,-3.0199,-3.0184,-3.0309,-3.0309,-3.0309,-3.0309,-3.0309,-3.0309,-2.9939,-3.0003,-3.0003,-3.0076,-3.0088,-3.0138,-3.0155,-3.0178,-3.0196,-3.0254,-3.0288,-3.0294,-3.0312,-3.0351,-3.0387,-3.0389,-3.0404,-3.0426,-3.0425,-3.0326,-3.0312,-3.0299,-3.0285,-3.0429,-3.0429,-3.0527,-3.0528,-3.0529]},{"header":{"parameterUnit":"m.s-1","parameterCategory":1,"la1":30.2991,"la2":30.254,"lo1":-89.0895,"lo2":-89.0444,"dy":0.0017,"dx":0.0017,"nx":28,"ny":28,"refTime":"2023-10-31T21:00:00:Z","depth":0,"parameterNumber":3,"parameterNumberName":"V-component_of_WINDS"},"data":[0,0,0,0,0,0,0,0,0,0,0,0,0,0,0,0,0,0,0,0,0,0,0,0,0,0,0,0,0,0,0,0,0,0,0,0,0,0,0,0,0,0,0,0,0,0,0,0,0,0,0,0,0,0,0,0,0,0,-8.1089,-8.109,0,-8.1183,-8.1184,-8.1185,-8.1112,-8.1109,-8.1106,-8.1103,-8.1193,-8.1198,-8.1203,0,0,0,0,0,0,0,0,0,0,0,0,0,-8.0841,-8.0846,-8.1089,-8.109,-8.1092,-8.1183,-8.1184,-8.1186,-8.1113,-8.1109,-8.1105,-8.1102,-8.1191,-8.1197,-8.1204,0,0,0,0,0,0,0,0,0,0,0,0,0,-8.0943,-8.0847,-8.1089,-8.1066,-8.1065,-8.1183,-8.1184,-8.1186,-8.1113,-8.1109,-8.1104,-8.11,-8.1189,-8.1197,-8.1204,-8.1347,0,0,-8.1229,-8.1232,0,0,0,0,0,0,0,0,-8.0937,-8.0952,-8.1069,-8.1068,-8.1067,-8.1131,-8.1129,-8.124,-8.1115,-8.1095,-8.1103,-8.1097,-8.1176,-8.1184,-8.1212,-8.1351,-8.1355,-8.1229,-8.1234,-8.1238,-8.124,0,0,0,0,0,0,0,-8.093,-8.0948,-8.1126,-8.107,-8.107,-8.1049,-8.1059,-8.115,-8.116,-8.1096,-8.1091,-8.1104,-8.1174,-8.1205,-8.1214,-8.1357,-8.1229,-8.1236,-8.1241,-8.1244,-8.1617,-8.1622,0,0,0,0,0,0,-8.0926,-8.0942,-8.1123,-8.1129,-8.099,-8.1058,-8.1068,-8.1115,-8.1159,-8.1161,-8.1108,-8.11,-8.1193,-8.1204,-8.1216,-8.1387,-8.1238,-8.1245,-8.125,-8.1612,-8.1619,-8.1624,0,0,0,0,0,0,-8.0921,-8.0943,-8.1119,-8.1034,-8.1055,-8.1067,-8.1121,-8.112,-8.115,-8.1168,-8.1168,-8.1137,-8.119,-8.1205,-8.1316,-8.1389,-8.1249,-8.1256,-8.1606,-8.1614,-8.1621,-8.1729,0,0,0,0,0,0,-8.0914,-8.0942,-8.0998,-8.1036,-8.106,-8.1219,-8.1125,-8.1125,-8.1165,-8.1156,-8.1196,-8.1198,-8.1188,-8.1304,-8.1324,-8.1397,-8.1262,-8.16,-8.161,-8.1619,-8.1718,-8.1739,-8.1756,0,0,0,0,0,-8.0906,-8.1022,-8.1001,-8.1023,-8.1131,-8.1224,-8.1237,-8.1225,-8.1171,-8.1226,-8.1237,-8.1196,-8.1378,-8.1316,-8.1337,-8.1414,-8.1595,-8.1607,-8.1618,-8.171,-8.1735,-8.1756,0,0,0,0,0,0,-8.0989,-8.1027,-8.1003,-8.1137,-8.1178,-8.1211,-8.1281,-8.1252,-8.1307,-8.1296,-8.1277,-8.1286,-8.1403,-8.1419,-8.135,-8.1555,-8.1477,-8.1494,-8.154,-8.1564,-8.1582,-8.1576,-8.1269,0,0,0,0,0,-8.1024,-8.1099,-8.1126,-8.1241,-8.1263,-8.1269,-8.1309,-8.1296,-8.1337,-8.1353,-8.1373,-8.1412,-8.1478,-8.1522,-8.1583,-8.172,-8.1728,-8.1784,-8.1803,-8.1818,-8.1833,-8.1906,-8.1931,-8.1662,-8.1662,-8.1662,0,0,-8.1095,-8.1125,-8.1173,-8.1259,-8.1289,-8.1365,-8.1284,-8.1367,-8.1423,-8.1365,-8.1472,-8.1487,-8.153,-8.1655,-8.171,-8.1672,-8.1909,-8.1833,-8.1845,-8.1851,-8.1921,-8.1946,-8.1969,-8.167,-8.1669,-8.1667,0,0,-8.1264,-8.1294,-8.1393,-8.1426,-8.1474,-8.1477,-8.1501,-8.1539,-8.1548,-8.1655,-8.1613,-8.1678,-8.1792,-8.1824,-8.1855,-8.2037,-8.2001,-8.2057,-8.2156,-8.2228,-8.225,-8.2268,-8.2333,-8.2357,-8.2071,-8.2072,-8.2072,0,-8.1345,-8.1461,-8.1447,-8.1535,-8.1574,-8.1527,-8.1627,-8.1658,-8.1723,-8.175,-8.1706,-8.1849,-8.1874,-8.2006,-8.205,-8.2077,-8.2103,-8.2053,-8.2248,-8.2267,-8.2284,-8.2345,-8.237,-8.2078,-8.2077,-8.2077,-8.2076,0,-8.1559,-8.1639,-8.1713,-8.178,-8.1826,-8.1919,-8.1919,-8.1967,-8.195,-8.1957,-8.2066,-8.2095,-8.2162,-8.2192,-8.2175,-8.2322,-8.2296,-8.2251,-8.2173,-8.2316,-8.2374,-8.2397,-8.2088,-8.2085,-8.2083,-8.2082,0,0,-8.1782,-8.1842,-8.1869,-8.1899,-8.1949,-8.201,-8.21,-8.2167,-8.2209,-8.2255,-8.233,-8.2427,-8.2386,-8.2422,-8.2408,-8.2471,-8.2614,-8.2418,-8.2419,-8.2454,-8.2776,-8.281,-8.2838,-8.259,-8.2594,-8.2598,-8.2773,0,-8.1954,-8.2114,-8.2105,-8.2254,-8.2328,-8.2285,-8.2363,-8.2401,-8.241,-8.2472,-8.248,-8.2551,-8.2491,-8.2512,-8.2573,-8.2584,-8.2678,-8.2571,-8.2658,-8.2661,-8.2649,-8.2868,-8.2905,-8.3068,-8.2795,-8.2799,-8.2802,0,-8.2175,-8.2232,-8.239,-8.2429,-8.2459,-8.2531,-8.2592,-8.2652,-8.2694,-8.2695,-8.2736,-8.2712,-8.2801,-8.2721,-8.2843,-8.2771,-8.2805,-8.2816,-8.2822,-8.283,-8.274,-8.2882,-8.312,-8.3145,-8.2837,-8.2834,-8.2831,0,-8.2323,-8.2439,-8.2548,-8.2575,-8.2623,-8.2674,-8.2696,-8.2733,-8.2775,-8.2827,-8.2854,-8.2915,-8.2949,-8.2996,-8.2989,-8.2931,-8.3113,-8.3032,-8.3116,-8.3117,-8.3157,-8.3154,-8.3404,-8.3179,-8.3179,-8.3178,-8.3178,0,-8.2516,-8.2614,-8.2616,-8.2683,-8.2791,-8.2779,-8.2885,-8.2901,-8.2935,-8.3003,-8.2968,-8.3032,-8.3019,-8.3082,-8.3077,-8.3179,-8.3194,-8.3197,-8.3194,-8.32,-8.32,-8.3223,-8.3211,-8.3185,-8.3183,-8.3182,-8.3181,0,-8.27,-8.2705,-8.2821,-8.2859,-8.287,-8.2948,-8.2979,-8.3041,-8.3048,-8.3134,-8.3154,-8.3163,-8.3236,-8.3233,-8.3315,-8.3311,-8.3437,-8.3421,-8.3424,-8.3421,-8.3505,-8.3497,-8.3778,-8.3814,-8.3565,-8.3568,-8.357,0,-8.2823,-8.2898,-8.2944,-8.2988,-8.3015,-8.3086,-8.3129,-8.3119,-8.3164,-8.3218,-8.3274,-8.3344,-8.34,-8.3518,-8.353,-8.3593,-8.3578,-8.3672,-8.3587,-8.3591,-8.358,-8.3576,-8.3583,-8.3689,-8.3692,-8.3694,-8.3696,0,-8.304,-8.3039,-8.3104,-8.317,-8.3222,-8.3273,-8.3319,-8.3356,-8.3351,-8.3404,-8.3479,-8.3523,-8.3608,-8.3677,-8.3737,-8.3757,-8.3726,-8.3723,-8.3745,-8.3752,-8.3751,-8.3753,-8.347,-8.3716,-8.3714,-8.3713,-8.3711,-8.3711,-8.3198,-8.3263,-8.3306,-8.3378,-8.3413,-8.3457,-8.3518,-8.3533,-8.3596,-8.3667,-8.3656,-8.374,-8.3779,-8.3857,-8.3882,-8.3947,-8.3913,-8.3946,-8.3954,-8.3963,-8.3973,-8.3741,-8.3957,-8.3957,-8.3956,-8.3956,-8.3955,0,-8.3414,-8.344,-8.3507,-8.3574,-8.3631,-8.3599,-8.3648,-8.3697,-8.3773,-8.3813,-8.3869,-8.3956,-8.4023,-8.4041,-8.4106,-8.4154,-8.4141,-8.4171,-8.4168,-8.4173,-8.3999,-8.3973,-8.4181,-8.4181,-8.4181,-8.4181,-8.4181,-8.4181,-8.3533,-8.3641,-8.3646,-8.377,-8.3794,-8.3879,-8.391,-8.395,-8.3982,-8.4081,-8.4138,-8.415,-8.4181,-8.4248,-8.4308,-8.4311,-8.4337,-8.4373,-8.4371,-8.4208,-8.4185,-8.4163,-8.4139,-8.4379,-8.4379,-8.4539,-8.4541,-8.4542]}]]